Volver al catálogo

STARLINK-37579

ActivoComunicacionesVLEO
NORAD 69843·PAYLOAD·🇺🇸 United States

Lanzado Jul 5, 2026 desde Cape Canaveral Space Force Station

Loading…

Próximos Pases (próximas 24 horas)

TLE

ActualizadoSource: CelesTrak SupGP

Época: Sep 14, 2026, 23:25 UTC

1 69843C 26154AA  26257.97618056 -.00001146  00000+0 -33855-4 0  2570
2 69843  53.1600 357.7757 0001141  78.9593  25.3081 15.34391234    11

Sigue STARLINK-37579 en tiempo real con AllMySat

Download on the App Store